Location: Brompton
(51.4000°N, 0.5333°E)
Time: 16:48:44
(UTC+00:00)

Cosmos 158 Rocket - Pass Details

Date: 11 May 2021
Orbit: 698 x 793 km, 74.0° (Epoch: 23 June)

Event Time Altitude Azimuth Distance (km) Brightness Sun altitude
Rises 21:36:36 0° 333° (NNW) 3,096 9.0 -14.3°
Reaches altitude 10° 21:38:56 10° 332° (NNW) 2,173 7.8 -14.4°
Maximum altitude 21:43:48 73° 249° (WSW) 740 3.9 -14.9°
Enters shadow 21:46:52 23° 168° (SSE) 1,489 4.9 -15.1°
